contact:dominique.lefevre@mio.osupytheas.fr, maurice.libes@osupytheas.fr, didier.mallarino@osupytheas.fr
Project:EMSO http://www.emso-fr.org/EMSO-France
Depth: 2436.0 m
Title:EMSO Ligure Ouest : Data MII capteur MICROCAT
DateTime_Computer,Latitude,Longitude,Temperature,Conductivity,Pressure,DateTime_Instrument
DateTime_Computer,Latitude,Longitude,degC,S m-1,dbar,DateTime_Instrument
2021-06-14T00:02:56Z,42.805,6.029,13.2995,4.59994,2470.553,2021-6-14T02:04:10Z
2021-06-14T00:05:59Z,42.805,6.029,13.2986,4.59997,2470.52,2021-6-14T02:07:13Z
2021-06-14T00:09:03Z,42.805,6.029,13.2988,4.59994,2470.507,2021-6-14T02:10:16Z
2021-06-14T00:12:06Z,42.805,6.029,13.2988,4.59996,2470.52,2021-6-14T02:13:19Z
2021-06-14T00:15:09Z,42.805,6.029,13.2989,4.59996,2470.544,2021-6-14T02:16:22Z
2021-06-14T00:18:12Z,42.805,6.029,13.2989,4.59995,2470.497,2021-6-14T02:19:25Z
2021-06-14T00:21:15Z,42.805,6.029,13.2987,4.59996,2470.544,2021-6-14T02:22:28Z
2021-06-14T00:24:18Z,42.805,6.029,13.2990,4.59994,2470.53,2021-6-14T02:25:32Z
2021-06-14T00:27:21Z,42.805,6.029,13.2991,4.59998,2470.52,2021-6-14T02:28:35Z
2021-06-14T00:30:24Z,42.805,6.029,13.2988,4.59996,2470.507,2021-6-14T02:31:38Z
2021-06-14T00:33:28Z,42.805,6.029,13.2993,4.60006,2470.507,2021-6-14T02:34:41Z
2021-06-14T00:36:31Z,42.805,6.029,13.2991,4.59993,2470.53,2021-6-14T02:37:44Z
2021-06-14T00:39:34Z,42.805,6.029,13.2986,4.59994,2470.483,2021-6-14T02:40:47Z
2021-06-14T00:42:37Z,42.805,6.029,13.2989,4.60001,2470.553,2021-6-14T02:43:50Z
2021-06-14T00:45:40Z,42.805,6.029,13.2987,4.59996,2470.544,2021-6-14T02:46:53Z
2021-06-14T00:48:43Z,42.805,6.029,13.2986,4.59996,2470.52,2021-6-14T02:49:57Z
2021-06-14T00:51:46Z,42.805,6.029,13.2986,4.59996,2470.497,2021-6-14T02:53:00Z
2021-06-14T00:54:49Z,42.805,6.029,13.2988,4.59994,2470.53,2021-6-14T02:56:03Z
2021-06-14T00:57:53Z,42.805,6.029,13.2990,4.59996,2470.437,2021-6-14T02:59:06Z
2021-06-14T01:00:56Z,42.805,6.029,13.2991,4.59993,2470.46,2021-6-14T03:02:09Z
2021-06-14T01:03:59Z,42.805,6.029,13.2986,4.59994,2470.52,2021-6-14T03:05:12Z
2021-06-14T01:07:02Z,42.805,6.029,13.2983,4.59998,2470.483,2021-6-14T03:08:15Z
2021-06-14T01:10:05Z,42.805,6.029,13.2989,4.59995,2470.483,2021-6-14T03:11:18Z
2021-06-14T01:13:08Z,42.805,6.029,13.2986,4.59994,2470.53,2021-6-14T03:14:22Z
2021-06-14T01:16:11Z,42.805,6.029,13.2986,4.59994,2470.46,2021-6-14T03:17:25Z
2021-06-14T01:19:14Z,42.805,6.029,13.2984,4.59994,2470.497,2021-6-14T03:20:28Z
2021-06-14T01:22:17Z,42.805,6.029,13.2990,4.59996,2470.507,2021-6-14T03:23:31Z
2021-06-14T01:25:21Z,42.805,6.029,13.2986,4.59995,2470.497,2021-6-14T03:26:34Z
2021-06-14T01:28:24Z,42.805,6.029,13.2990,4.59996,2470.483,2021-6-14T03:29:37Z
2021-06-14T01:31:27Z,42.805,6.029,13.2989,4.59996,2470.52,2021-6-14T03:32:40Z
2021-06-14T01:34:30Z,42.805,6.029,13.2986,4.59995,2470.497,2021-6-14T03:35:43Z
2021-06-14T01:37:33Z,42.805,6.029,13.2988,4.59994,2470.483,2021-6-14T03:38:47Z
2021-06-14T01:40:36Z,42.805,6.029,13.2985,4.59995,2470.46,2021-6-14T03:41:50Z
2021-06-14T01:43:39Z,42.805,6.029,13.2990,4.59997,2470.474,2021-6-14T03:44:53Z
2021-06-14T01:46:42Z,42.805,6.029,13.2986,4.59995,2470.46,2021-6-14T03:47:56Z
2021-06-14T01:49:46Z,42.805,6.029,13.2989,4.59996,2470.474,2021-6-14T03:50:59Z
2021-06-14T01:52:49Z,42.805,6.029,13.2987,4.59996,2470.46,2021-6-14T03:54:02Z
2021-06-14T01:55:52Z,42.805,6.029,13.2986,4.59995,2470.46,2021-6-14T03:57:05Z
2021-06-14T01:58:55Z,42.805,6.029,13.2987,4.59993,2470.483,2021-6-14T04:00:08Z
2021-06-14T02:01:58Z,42.805,6.029,13.2985,4.59996,2470.45,2021-6-14T04:03:11Z
2021-06-14T02:05:01Z,42.805,6.029,13.2986,4.60004,2470.483,2021-6-14T04:06:15Z
2021-06-14T02:08:04Z,42.805,6.029,13.2984,4.59999,2470.437,2021-6-14T04:09:18Z
2021-06-14T02:11:07Z,42.805,6.029,13.2986,4.59995,2470.46,2021-6-14T04:12:21Z
2021-06-14T02:14:11Z,42.805,6.029,13.2986,4.59995,2470.483,2021-6-14T04:15:24Z
2021-06-14T02:17:14Z,42.805,6.029,13.2990,4.59995,2470.474,2021-6-14T04:18:27Z
2021-06-14T02:20:17Z,42.805,6.029,13.2984,4.59994,2470.45,2021-6-14T04:21:30Z
2021-06-14T02:23:20Z,42.805,6.029,13.2986,4.59995,2470.45,2021-6-14T04:24:33Z
2021-06-14T02:26:23Z,42.805,6.029,13.2986,4.59992,2470.474,2021-6-14T04:27:37Z
2021-06-14T02:29:26Z,42.805,6.029,13.2983,4.59996,2470.45,2021-6-14T04:30:40Z
2021-06-14T02:32:29Z,42.805,6.029,13.2986,4.59996,2470.497,2021-6-14T04:33:43Z
2021-06-14T02:35:32Z,42.805,6.029,13.2986,4.59994,2470.45,2021-6-14T04:36:46Z
2021-06-14T02:38:36Z,42.805,6.029,13.2986,4.59993,2470.437,2021-6-14T04:39:49Z
2021-06-14T02:41:39Z,42.805,6.029,13.2986,4.60002,2470.413,2021-6-14T04:42:52Z
2021-06-14T02:44:42Z,42.805,6.029,13.2993,4.59998,2470.437,2021-6-14T04:45:55Z
2021-06-14T02:47:45Z,42.805,6.029,13.2991,4.59997,2470.413,2021-6-14T04:48:58Z
2021-06-14T02:50:48Z,42.805,6.029,13.2989,4.59995,2470.474,2021-6-14T04:52:01Z
2021-06-14T02:53:51Z,42.805,6.029,13.2986,4.59993,2470.437,2021-6-14T04:55:05Z
2021-06-14T02:56:54Z,42.805,6.029,13.2988,4.59996,2470.46,2021-6-14T04:58:08Z
2021-06-14T02:59:57Z,42.805,6.029,13.2986,4.59997,2470.427,2021-6-14T05:01:11Z
2021-06-14T03:03:00Z,42.805,6.029,13.2984,4.59996,2470.413,2021-6-14T05:04:14Z
2021-06-14T03:06:04Z,42.805,6.029,13.2985,4.59996,2470.427,2021-6-14T05:07:17Z
2021-06-14T03:09:07Z,42.805,6.029,13.2990,4.59996,2470.437,2021-6-14T05:10:20Z
2021-06-14T03:12:10Z,42.805,6.029,13.2986,4.59996,2470.45,2021-6-14T05:13:23Z
2021-06-14T03:15:13Z,42.805,6.029,13.2991,4.59996,2470.437,2021-6-14T05:16:26Z
2021-06-14T03:18:16Z,42.805,6.029,13.2991,4.59996,2470.45,2021-6-14T05:19:30Z
2021-06-14T03:21:19Z,42.805,6.029,13.2988,4.59996,2470.45,2021-6-14T05:22:33Z
2021-06-14T03:24:22Z,42.805,6.029,13.2987,4.60000,2470.413,2021-6-14T05:25:36Z
2021-06-14T03:27:26Z,42.805,6.029,13.2985,4.59995,2470.427,2021-6-14T05:28:39Z
2021-06-14T03:30:29Z,42.805,6.029,13.2987,4.59994,2470.404,2021-6-14T05:31:42Z
2021-06-14T03:33:32Z,42.805,6.029,13.2991,4.59994,2470.45,2021-6-14T05:34:45Z
2021-06-14T03:36:35Z,42.805,6.029,13.2990,4.59994,2470.427,2021-6-14T05:37:48Z
2021-06-14T03:39:38Z,42.805,6.029,13.2990,4.60002,2470.413,2021-6-14T05:40:51Z
2021-06-14T03:42:41Z,42.805,6.029,13.2984,4.59999,2470.413,2021-6-14T05:43:55Z
2021-06-14T03:45:44Z,42.805,6.029,13.2988,4.59996,2470.427,2021-6-14T05:46:58Z
2021-06-14T03:48:47Z,42.805,6.029,13.2989,4.59995,2470.404,2021-6-14T05:50:01Z
2021-06-14T03:51:50Z,42.805,6.029,13.2988,4.59996,2470.413,2021-6-14T05:53:04Z
2021-06-14T03:54:54Z,42.805,6.029,13.2988,4.59994,2470.427,2021-6-14T05:56:07Z
2021-06-14T03:57:57Z,42.805,6.029,13.2993,4.59995,2470.413,2021-6-14T05:59:10Z
2021-06-14T04:01:00Z,42.805,6.029,13.2990,4.59993,2470.427,2021-6-14T06:02:13Z
2021-06-14T04:04:03Z,42.805,6.029,13.2986,4.59999,2470.437,2021-6-14T06:05:16Z
2021-06-14T04:07:06Z,42.805,6.029,13.2987,4.59996,2470.39,2021-6-14T06:08:20Z
2021-06-14T04:10:09Z,42.805,6.029,13.2990,4.59995,2470.413,2021-6-14T06:11:23Z
2021-06-14T04:13:12Z,42.805,6.029,13.2986,4.59994,2470.39,2021-6-14T06:14:26Z
2021-06-14T04:16:15Z,42.805,6.029,13.2986,4.59995,2470.404,2021-6-14T06:17:29Z
2021-06-14T04:19:19Z,42.805,6.029,13.2988,4.59994,2470.413,2021-6-14T06:20:32Z
2021-06-14T04:22:22Z,42.805,6.029,13.2990,4.59994,2470.404,2021-6-14T06:23:35Z
2021-06-14T04:25:25Z,42.805,6.029,13.2988,4.59999,2470.39,2021-6-14T06:26:38Z
2021-06-14T04:28:28Z,42.805,6.029,13.2988,4.59997,2470.366,2021-6-14T06:29:41Z
2021-06-14T04:31:31Z,42.805,6.029,13.2991,4.59994,2470.39,2021-6-14T06:32:45Z
2021-06-14T04:34:34Z,42.805,6.029,13.2996,4.59994,2470.38,2021-6-14T06:35:48Z
2021-06-14T04:37:37Z,42.805,6.029,13.2994,4.59993,2470.366,2021-6-14T06:38:51Z
2021-06-14T04:40:40Z,42.805,6.029,13.2994,4.59994,2470.343,2021-6-14T06:41:54Z
2021-06-14T04:43:44Z,42.805,6.029,13.2991,4.59994,2470.437,2021-6-14T06:44:57Z
2021-06-14T04:46:47Z,42.805,6.029,13.2987,4.59994,2470.427,2021-6-14T06:48:00Z
2021-06-14T04:49:50Z,42.805,6.029,13.2985,4.59997,2470.427,2021-6-14T06:51:03Z
2021-06-14T04:52:53Z,42.805,6.029,13.2987,4.60003,2470.427,2021-6-14T06:54:06Z
2021-06-14T04:55:56Z,42.805,6.029,13.2982,4.59996,2470.413,2021-6-14T06:57:09Z
2021-06-14T04:58:59Z,42.805,6.029,13.2987,4.59995,2470.404,2021-6-14T07:00:13Z
2021-06-14T05:02:02Z,42.805,6.029,13.2986,4.59994,2470.413,2021-6-14T07:03:16Z
2021-06-14T05:05:05Z,42.805,6.029,13.2986,4.59992,2470.413,2021-6-14T07:06:19Z
2021-06-14T05:08:09Z,42.805,6.029,13.2986,4.59997,2470.413,2021-6-14T07:09:22Z
2021-06-14T05:11:12Z,42.805,6.029,13.2985,4.59997,2470.39,2021-6-14T07:12:25Z
2021-06-14T05:14:15Z,42.805,6.029,13.2990,4.59994,2470.45,2021-6-14T07:15:28Z
2021-06-14T05:17:18Z,42.805,6.029,13.2991,4.59996,2470.38,2021-6-14T07:18:31Z
2021-06-14T05:20:21Z,42.805,6.029,13.2986,4.59994,2470.46,2021-6-14T07:21:34Z
2021-06-14T05:23:24Z,42.805,6.029,13.2989,4.59994,2470.427,2021-6-14T07:24:38Z
2021-06-14T05:26:27Z,42.805,6.029,13.2990,4.59996,2470.437,2021-6-14T07:27:41Z
2021-06-14T05:29:30Z,42.805,6.029,13.2983,4.59994,2470.427,2021-6-14T07:30:44Z
2021-06-14T05:32:33Z,42.805,6.029,13.2986,4.59994,2470.39,2021-6-14T07:33:47Z
2021-06-14T05:35:37Z,42.805,6.029,13.2983,4.59999,2470.404,2021-6-14T07:36:50Z
2021-06-14T05:38:40Z,42.805,6.029,13.2989,4.59994,2470.404,2021-6-14T07:39:53Z
2021-06-14T05:41:43Z,42.805,6.029,13.2985,4.59993,2470.413,2021-6-14T07:42:56Z
2021-06-14T05:44:46Z,42.805,6.029,13.2984,4.59995,2470.413,2021-6-14T07:45:59Z
2021-06-14T05:47:49Z,42.805,6.029,13.2989,4.59998,2470.45,2021-6-14T07:49:03Z
2021-06-14T05:50:52Z,42.805,6.029,13.2986,4.59996,2470.404,2021-6-14T07:52:06Z
2021-06-14T05:53:55Z,42.805,6.029,13.2988,4.59998,2470.427,2021-6-14T07:55:09Z
2021-06-14T05:56:58Z,42.805,6.029,13.2990,4.59993,2470.437,2021-6-14T07:58:12Z
2021-06-14T06:00:02Z,42.805,6.029,13.2989,4.59999,2470.45,2021-6-14T08:01:15Z
2021-06-14T06:03:05Z,42.805,6.029,13.2988,4.59996,2470.427,2021-6-14T08:04:18Z
2021-06-14T06:06:08Z,42.805,6.029,13.2988,4.59996,2470.413,2021-6-14T08:07:21Z
2021-06-14T06:09:11Z,42.805,6.029,13.2989,4.59996,2470.437,2021-6-14T08:10:24Z
2021-06-14T06:12:14Z,42.805,6.029,13.2986,4.60001,2470.437,2021-6-14T08:13:28Z
2021-06-14T06:15:17Z,42.805,6.029,13.2990,4.59996,2470.423,2021-6-14T08:16:31Z
2021-06-14T06:18:20Z,42.805,6.029,13.2990,4.59994,2470.427,2021-6-14T08:19:34Z
2021-06-14T06:21:23Z,42.805,6.029,13.2990,4.59996,2470.437,2021-6-14T08:22:37Z
2021-06-14T06:24:27Z,42.805,6.029,13.2983,4.59997,2470.46,2021-6-14T08:25:40Z
2021-06-14T06:27:30Z,42.805,6.029,13.2989,4.59995,2470.39,2021-6-14T08:28:43Z
2021-06-14T06:30:33Z,42.805,6.029,13.2989,4.59995,2470.437,2021-6-14T08:31:46Z
2021-06-14T06:33:36Z,42.805,6.029,13.2989,4.59995,2470.437,2021-6-14T08:34:49Z
2021-06-14T06:36:39Z,42.805,6.029,13.2990,4.59995,2470.437,2021-6-14T08:37:52Z
2021-06-14T06:39:42Z,42.805,6.029,13.2988,4.59996,2470.46,2021-6-14T08:40:56Z
2021-06-14T06:42:45Z,42.805,6.029,13.2990,4.59995,2470.427,2021-6-14T08:43:59Z
2021-06-14T06:45:48Z,42.805,6.029,13.2990,4.59996,2470.404,2021-6-14T08:47:02Z
2021-06-14T06:48:52Z,42.805,6.029,13.2986,4.59999,2470.45,2021-6-14T08:50:05Z
2021-06-14T06:51:55Z,42.805,6.029,13.2990,4.59994,2470.46,2021-6-14T08:53:08Z
2021-06-14T06:54:58Z,42.805,6.029,13.2988,4.59998,2470.437,2021-6-14T08:56:11Z
2021-06-14T06:58:01Z,42.805,6.029,13.2989,4.59995,2470.437,2021-6-14T08:59:14Z
2021-06-14T07:01:04Z,42.805,6.029,13.2991,4.59995,2470.46,2021-6-14T09:02:17Z
2021-06-14T07:04:07Z,42.805,6.029,13.2990,4.59996,2470.46,2021-6-14T09:05:21Z
2021-06-14T07:07:10Z,42.805,6.029,13.2987,4.59995,2470.437,2021-6-14T09:08:24Z
2021-06-14T07:10:13Z,42.805,6.029,13.2987,4.59995,2470.46,2021-6-14T09:11:27Z
2021-06-14T07:13:17Z,42.805,6.029,13.2990,4.59995,2470.46,2021-6-14T09:14:30Z
2021-06-14T07:16:20Z,42.805,6.029,13.2990,4.59994,2470.46,2021-6-14T09:17:33Z
2021-06-14T07:19:23Z,42.805,6.029,13.2991,4.59997,2470.507,2021-6-14T09:20:36Z
2021-06-14T07:22:26Z,42.805,6.029,13.2989,4.59997,2470.483,2021-6-14T09:23:39Z
2021-06-14T07:25:29Z,42.805,6.029,13.2990,4.59996,2470.46,2021-6-14T09:26:42Z
2021-06-14T07:28:32Z,42.805,6.029,13.2989,4.59996,2470.507,2021-6-14T09:29:46Z
2021-06-14T07:31:35Z,42.805,6.029,13.2986,4.59996,2470.507,2021-6-14T09:32:49Z
2021-06-14T07:34:38Z,42.805,6.029,13.2987,4.59998,2470.46,2021-6-14T09:35:52Z
2021-06-14T07:37:42Z,42.805,6.029,13.2991,4.60002,2470.483,2021-6-14T09:38:55Z
2021-06-14T07:40:45Z,42.805,6.029,13.2986,4.59996,2470.46,2021-6-14T09:41:58Z
2021-06-14T07:43:48Z,42.805,6.029,13.2987,4.59995,2470.46,2021-6-14T09:45:01Z
2021-06-14T07:46:51Z,42.805,6.029,13.2991,4.59995,2470.497,2021-6-14T09:48:04Z
2021-06-14T07:49:54Z,42.805,6.029,13.2990,4.59995,2470.497,2021-6-14T09:51:07Z
2021-06-14T07:52:57Z,42.805,6.029,13.2990,4.60003,2470.483,2021-6-14T09:54:11Z
2021-06-14T07:56:00Z,42.805,6.029,13.2991,4.59995,2470.46,2021-6-14T09:57:14Z
2021-06-14T07:59:03Z,42.805,6.029,13.2986,4.59998,2470.497,2021-6-14T10:00:17Z
2021-06-14T08:02:06Z,42.805,6.029,13.2987,4.59999,2470.52,2021-6-14T10:03:20Z
2021-06-14T08:05:10Z,42.805,6.029,13.2985,4.59998,2470.483,2021-6-14T10:06:23Z
2021-06-14T08:08:13Z,42.805,6.029,13.2989,4.59999,2470.497,2021-6-14T10:09:26Z
2021-06-14T08:11:16Z,42.805,6.029,13.2992,4.59998,2470.497,2021-6-14T10:12:29Z
2021-06-14T08:14:19Z,42.805,6.029,13.2989,4.59998,2470.497,2021-6-14T10:15:32Z
2021-06-14T08:17:22Z,42.805,6.029,13.2990,4.60001,2470.483,2021-6-14T10:18:36Z
2021-06-14T08:20:25Z,42.805,6.029,13.2988,4.59999,2470.483,2021-6-14T10:21:39Z
2021-06-14T08:23:28Z,42.805,6.029,13.2987,4.59996,2470.53,2021-6-14T10:24:42Z
2021-06-14T08:26:32Z,42.805,6.029,13.2984,4.59999,2470.493,2021-6-14T10:27:45Z
2021-06-14T08:29:35Z,42.805,6.029,13.2988,4.59999,2470.507,2021-6-14T10:30:48Z
2021-06-14T08:32:38Z,42.805,6.029,13.2986,4.59994,2470.46,2021-6-14T10:33:51Z
2021-06-14T08:35:41Z,42.805,6.029,13.2986,4.59997,2470.52,2021-6-14T10:36:54Z
2021-06-14T08:38:44Z,42.805,6.029,13.2986,4.59994,2470.483,2021-6-14T10:39:58Z
2021-06-14T08:41:47Z,42.805,6.029,13.2985,4.59995,2470.483,2021-6-14T10:43:01Z
2021-06-14T08:44:50Z,42.805,6.029,13.2987,4.59994,2470.507,2021-6-14T10:46:04Z
2021-06-14T08:47:53Z,42.805,6.029,13.2990,4.59993,2470.507,2021-6-14T10:49:07Z
2021-06-14T08:50:57Z,42.805,6.029,13.2988,4.59994,2470.483,2021-6-14T10:52:10Z
2021-06-14T08:54:00Z,42.805,6.029,13.2988,4.59992,2470.497,2021-6-14T10:55:13Z
2021-06-14T08:57:03Z,42.805,6.029,13.2990,4.59995,2470.507,2021-6-14T10:58:16Z
2021-06-14T09:00:06Z,42.805,6.029,13.2987,4.59996,2470.483,2021-6-14T11:01:19Z
2021-06-14T09:03:09Z,42.805,6.029,13.2988,4.59993,2470.483,2021-6-14T11:04:23Z
2021-06-14T09:06:12Z,42.805,6.029,13.2986,4.59992,2470.483,2021-6-14T11:07:26Z
2021-06-14T09:09:15Z,42.805,6.029,13.2986,4.59993,2470.497,2021-6-14T11:10:29Z
2021-06-14T09:12:18Z,42.805,6.029,13.2989,4.59992,2470.46,2021-6-14T11:13:32Z
2021-06-14T09:15:22Z,42.805,6.029,13.2990,4.59995,2470.507,2021-6-14T11:16:35Z
2021-06-14T09:18:25Z,42.805,6.029,13.2987,4.59995,2470.507,2021-6-14T11:19:38Z
2021-06-14T09:21:28Z,42.805,6.029,13.2985,4.59994,2470.507,2021-6-14T11:22:41Z
2021-06-14T09:24:31Z,42.805,6.029,13.2986,4.59992,2470.497,2021-6-14T11:25:44Z
2021-06-14T09:27:34Z,42.805,6.029,13.2984,4.59994,2470.483,2021-6-14T11:28:48Z
2021-06-14T09:30:37Z,42.805,6.029,13.2989,4.59994,2470.46,2021-6-14T11:31:51Z
2021-06-14T09:33:40Z,42.805,6.029,13.2986,4.59999,2470.45,2021-6-14T11:34:54Z
2021-06-14T09:36:43Z,42.805,6.029,13.2986,4.59993,2470.497,2021-6-14T11:37:57Z
2021-06-14T09:39:47Z,42.805,6.029,13.2991,4.59994,2470.46,2021-6-14T11:41:00Z
2021-06-14T09:42:50Z,42.805,6.029,13.2989,4.59994,2470.46,2021-6-14T11:44:03Z
2021-06-14T09:45:53Z,42.805,6.029,13.2990,4.59994,2470.52,2021-6-14T11:47:06Z
2021-06-14T09:48:56Z,42.805,6.029,13.2986,4.60001,2470.52,2021-6-14T11:50:09Z
2021-06-14T09:51:59Z,42.805,6.029,13.2986,4.59993,2470.52,2021-6-14T11:53:13Z
2021-06-14T09:55:02Z,42.805,6.029,13.2986,4.59995,2470.497,2021-6-14T11:56:16Z
2021-06-14T09:58:05Z,42.805,6.029,13.2990,4.59993,2470.497,2021-6-14T11:59:19Z
2021-06-14T10:01:08Z,42.805,6.029,13.2988,4.59994,2470.483,2021-6-14T12:02:22Z
2021-06-14T10:04:12Z,42.805,6.029,13.2986,4.59994,2470.497,2021-6-14T12:05:25Z
2021-06-14T10:07:15Z,42.805,6.029,13.2990,4.59993,2470.437,2021-6-14T12:08:28Z
2021-06-14T10:10:18Z,42.805,6.029,13.2989,4.59994,2470.483,2021-6-14T12:11:31Z
2021-06-14T10:13:21Z,42.805,6.029,13.2990,4.59997,2470.474,2021-6-14T12:14:34Z
2021-06-14T10:16:24Z,42.805,6.029,13.2989,4.59996,2470.474,2021-6-14T12:17:38Z
2021-06-14T10:19:27Z,42.805,6.029,13.2985,4.59994,2470.46,2021-6-14T12:20:41Z
2021-06-14T10:22:30Z,42.805,6.029,13.2989,4.59997,2470.497,2021-6-14T12:23:44Z
2021-06-14T10:25:34Z,42.805,6.029,13.2988,4.59994,2470.497,2021-6-14T12:26:47Z
2021-06-14T10:28:37Z,42.805,6.029,13.2990,4.59999,2470.483,2021-6-14T12:29:50Z
2021-06-14T10:31:40Z,42.805,6.029,13.2984,4.59993,2470.46,2021-6-14T12:32:53Z
2021-06-14T10:34:43Z,42.805,6.029,13.2989,4.59997,2470.497,2021-6-14T12:35:56Z
2021-06-14T10:37:46Z,42.805,6.029,13.2991,4.59994,2470.483,2021-6-14T12:38:59Z
2021-06-14T10:40:49Z,42.805,6.029,13.2987,4.59993,2470.437,2021-6-14T12:42:03Z
2021-06-14T10:43:52Z,42.805,6.029,13.2988,4.59996,2470.46,2021-6-14T12:45:06Z
2021-06-14T10:46:55Z,42.805,6.029,13.2984,4.59994,2470.497,2021-6-14T12:48:09Z
2021-06-14T10:49:59Z,42.805,6.029,13.2990,4.59994,2470.474,2021-6-14T12:51:12Z
2021-06-14T10:53:02Z,42.805,6.029,13.2983,4.59994,2470.45,2021-6-14T12:54:15Z
2021-06-14T10:56:05Z,42.805,6.029,13.2991,4.59995,2470.483,2021-6-14T12:57:18Z
2021-06-14T10:59:08Z,42.805,6.029,13.2989,4.59996,2470.45,2021-6-14T13:00:21Z
2021-06-14T11:02:11Z,42.805,6.029,13.2987,4.59998,2470.474,2021-6-14T13:03:25Z
2021-06-14T11:05:14Z,42.805,6.029,13.2990,4.59996,2470.46,2021-6-14T13:06:28Z
2021-06-14T11:08:17Z,42.805,6.029,13.2988,4.59998,2470.474,2021-6-14T13:09:31Z
2021-06-14T11:11:20Z,42.805,6.029,13.2996,4.59999,2470.427,2021-6-14T13:12:34Z
2021-06-14T11:14:24Z,42.805,6.029,13.2987,4.59996,2470.45,2021-6-14T13:15:37Z
2021-06-14T11:17:27Z,42.805,6.029,13.2991,4.59996,2470.437,2021-6-14T13:18:40Z
2021-06-14T11:20:30Z,42.805,6.029,13.2992,4.60000,2470.437,2021-6-14T13:21:43Z
2021-06-14T11:23:33Z,42.805,6.029,13.2992,4.59995,2470.437,2021-6-14T13:24:46Z
2021-06-14T11:26:36Z,42.805,6.029,13.2990,4.59994,2470.437,2021-6-14T13:27:50Z
2021-06-14T11:29:39Z,42.805,6.029,13.2988,4.60003,2470.45,2021-6-14T13:30:53Z
2021-06-14T11:32:42Z,42.805,6.029,13.2986,4.59997,2470.427,2021-6-14T13:33:56Z
2021-06-14T11:35:45Z,42.805,6.029,13.2985,4.60006,2470.437,2021-6-14T13:36:59Z
2021-06-14T11:38:49Z,42.805,6.029,13.2992,4.59998,2470.437,2021-6-14T13:40:02Z
2021-06-14T11:41:52Z,42.805,6.029,13.2988,4.59994,2470.46,2021-6-14T13:43:05Z
2021-06-14T11:44:55Z,42.805,6.029,13.2989,4.59999,2470.45,2021-6-14T13:46:08Z
2021-06-14T11:47:58Z,42.805,6.029,13.2990,4.59995,2470.413,2021-6-14T13:49:11Z
2021-06-14T11:51:01Z,42.805,6.029,13.2990,4.59998,2470.437,2021-6-14T13:52:15Z
2021-06-14T11:54:04Z,42.805,6.029,13.2985,4.59999,2470.413,2021-6-14T13:55:18Z
2021-06-14T11:57:07Z,42.805,6.029,13.2993,4.59998,2470.404,2021-6-14T13:58:21Z
2021-06-14T12:00:10Z,42.805,6.029,13.2994,4.59999,2470.404,2021-6-14T14:01:24Z
2021-06-14T12:03:14Z,42.805,6.029,13.2990,4.60004,2470.45,2021-6-14T14:04:27Z
2021-06-14T12:06:17Z,42.805,6.029,13.2991,4.60003,2470.427,2021-6-14T14:07:30Z
2021-06-14T12:09:20Z,42.805,6.029,13.2988,4.59996,2470.427,2021-6-14T14:10:33Z
2021-06-14T12:12:23Z,42.805,6.029,13.2993,4.59995,2470.437,2021-6-14T14:13:36Z
2021-06-14T12:15:26Z,42.805,6.029,13.2992,4.59994,2470.427,2021-6-14T14:16:40Z
2021-06-14T12:18:29Z,42.805,6.029,13.2988,4.59997,2470.437,2021-6-14T14:19:43Z
2021-06-14T12:21:32Z,42.805,6.029,13.2993,4.59998,2470.427,2021-6-14T14:22:46Z
2021-06-14T12:24:35Z,42.805,6.029,13.2991,4.59995,2470.427,2021-6-14T14:25:49Z
2021-06-14T12:27:39Z,42.805,6.029,13.2991,4.59996,2470.39,2021-6-14T14:28:52Z
2021-06-14T12:30:42Z,42.805,6.029,13.2995,4.59996,2470.427,2021-6-14T14:31:55Z
2021-06-14T12:33:45Z,42.805,6.029,13.2989,4.60001,2470.404,2021-6-14T14:34:58Z
2021-06-14T12:36:48Z,42.805,6.029,13.2991,4.59994,2470.413,2021-6-14T14:38:01Z
2021-06-14T12:39:51Z,42.805,6.029,13.2988,4.59995,2470.413,2021-6-14T14:41:05Z
2021-06-14T12:42:54Z,42.805,6.029,13.2996,4.60002,2470.413,2021-6-14T14:44:08Z
2021-06-14T12:45:57Z,42.805,6.029,13.2986,4.59998,2470.38,2021-6-14T14:47:11Z
2021-06-14T12:49:01Z,42.805,6.029,13.2990,4.59996,2470.404,2021-6-14T14:50:14Z
2021-06-14T12:52:04Z,42.805,6.029,13.2992,4.59996,2470.39,2021-6-14T14:53:17Z
2021-06-14T12:55:07Z,42.805,6.029,13.2991,4.60001,2470.376,2021-6-14T14:56:20Z
2021-06-14T12:58:10Z,42.805,6.029,13.2995,4.59995,2470.376,2021-6-14T14:59:23Z
2021-06-14T13:01:13Z,42.805,6.029,13.2990,4.59995,2470.366,2021-6-14T15:02:26Z
2021-06-14T13:04:16Z,42.805,6.029,13.2990,4.59994,2470.366,2021-6-14T15:05:30Z
2021-06-14T13:07:19Z,42.805,6.029,13.2990,4.59996,2470.38,2021-6-14T15:08:33Z
2021-06-14T13:10:22Z,42.805,6.029,13.2990,4.59996,2470.39,2021-6-14T15:11:36Z
2021-06-14T13:13:26Z,42.805,6.029,13.2990,4.59996,2470.343,2021-6-14T15:14:39Z
2021-06-14T13:16:29Z,42.805,6.029,13.2990,4.59997,2470.39,2021-6-14T15:17:42Z
2021-06-14T13:20:01Z,42.805,6.029,13.2991,4.59997,2470.39,2021-6-14T15:20:45Z
2021-06-14T13:22:36Z,42.805,6.029,13.2989,4.59996,2470.366,2021-6-14T15:23:50Z
2021-06-14T13:25:39Z,42.805,6.029,13.2993,4.59996,2470.357,2021-6-14T15:26:53Z
2021-06-14T13:28:42Z,42.805,6.029,13.2991,4.59999,2470.38,2021-6-14T15:29:56Z
2021-06-14T13:31:45Z,42.805,6.029,13.2991,4.59995,2470.38,2021-6-14T15:32:59Z
2021-06-14T13:34:49Z,42.805,6.029,13.2993,4.59996,2470.366,2021-6-14T15:36:02Z
2021-06-14T13:37:52Z,42.805,6.029,13.2993,4.59997,2470.38,2021-6-14T15:39:05Z
2021-06-14T13:40:55Z,42.805,6.029,13.2991,4.59997,2470.343,2021-6-14T15:42:08Z
2021-06-14T13:43:58Z,42.805,6.029,13.2997,4.59997,2470.366,2021-6-14T15:45:11Z
2021-06-14T13:47:01Z,42.805,6.029,13.2989,4.59997,2470.39,2021-6-14T15:48:15Z
2021-06-14T13:50:04Z,42.805,6.029,13.2987,4.60000,2470.366,2021-6-14T15:51:18Z
2021-06-14T13:53:07Z,42.805,6.029,13.2990,4.59997,2470.39,2021-6-14T15:54:21Z
2021-06-14T13:56:11Z,42.805,6.029,13.2989,4.59998,2470.366,2021-6-14T15:57:24Z
2021-06-14T13:59:14Z,42.805,6.029,13.2988,4.59996,2470.357,2021-6-14T16:00:27Z
2021-06-14T14:02:17Z,42.805,6.029,13.2992,4.60003,2470.357,2021-6-14T16:03:30Z
2021-06-14T14:05:20Z,42.805,6.029,13.2993,4.59996,2470.39,2021-6-14T16:06:33Z
2021-06-14T14:08:23Z,42.805,6.029,13.2993,4.59998,2470.32,2021-6-14T16:09:36Z
2021-06-14T14:11:26Z,42.805,6.029,13.2993,4.59999,2470.38,2021-6-14T16:12:40Z
2021-06-14T14:14:29Z,42.805,6.029,13.2991,4.59998,2470.366,2021-6-14T16:15:43Z
2021-06-14T14:17:32Z,42.805,6.029,13.2989,4.59999,2470.366,2021-6-14T16:18:46Z
2021-06-14T14:20:35Z,42.805,6.029,13.2991,4.59998,2470.357,2021-6-14T16:21:49Z
2021-06-14T14:23:39Z,42.805,6.029,13.2991,4.60002,2470.366,2021-6-14T16:24:52Z
2021-06-14T14:26:42Z,42.805,6.029,13.2988,4.59997,2470.343,2021-6-14T16:27:55Z
2021-06-14T14:29:45Z,42.805,6.029,13.2992,4.60000,2470.357,2021-6-14T16:30:58Z
2021-06-14T14:32:48Z,42.805,6.029,13.2991,4.59998,2470.366,2021-6-14T16:34:01Z
2021-06-14T14:35:51Z,42.805,6.029,13.2991,4.59998,2470.334,2021-6-14T16:37:05Z
2021-06-14T14:38:54Z,42.805,6.029,13.2998,4.59999,2470.32,2021-6-14T16:40:08Z
2021-06-14T14:41:57Z,42.805,6.029,13.2993,4.59999,2470.32,2021-6-14T16:43:11Z
2021-06-14T14:45:01Z,42.805,6.029,13.2994,4.60004,2470.32,2021-6-14T16:46:14Z
2021-06-14T14:48:04Z,42.805,6.029,13.2993,4.59996,2470.343,2021-6-14T16:49:17Z
2021-06-14T14:51:07Z,42.805,6.029,13.2998,4.59999,2470.343,2021-6-14T16:52:20Z
2021-06-14T14:54:10Z,42.805,6.029,13.2988,4.60004,2470.38,2021-6-14T16:55:23Z
2021-06-14T14:57:13Z,42.805,6.029,13.2991,4.60000,2470.357,2021-6-14T16:58:26Z
2021-06-14T15:00:16Z,42.805,6.029,13.2992,4.59999,2470.343,2021-6-14T17:01:30Z
2021-06-14T15:03:19Z,42.805,6.029,13.2992,4.60000,2470.343,2021-6-14T17:04:33Z
2021-06-14T15:06:22Z,42.805,6.029,13.2993,4.60004,2470.38,2021-6-14T17:07:36Z
2021-06-14T15:09:26Z,42.805,6.029,13.2991,4.60004,2470.343,2021-6-14T17:10:39Z
2021-06-14T15:12:29Z,42.805,6.029,13.2993,4.60003,2470.297,2021-6-14T17:13:42Z
2021-06-14T15:15:32Z,42.805,6.029,13.2995,4.60004,2470.32,2021-6-14T17:16:45Z